Date String (YYYY-MM-DD hh:mm:ss) UTC,Instrument flags,Ambient pressure (hPa),Sample flow (lpm),Bypass flow (lpm),Sample temperature (°C),Ambient temperature (°C),ASC tube jacket temperature (°C),LED temperature (°C),Box temperature (°C),Sample RH (%),Span deviation,Mass concentration (μg/m³),Mass concentration (μg/m³),Mass concentration (μg/m³)
DateTimeUTC,F1_M11,P_M11,Q1_M11,Q2_M11,T1_M11,T2_M11,T3_M11,T4_M11,T5_M11,U1_M11,ZSPAN_M11,X2_M11,X0_M11,X1_M11
2021-10-06 17:00:00,,0826.7,5.01,0.00,29.7,28.0,00.0,38.9,31.5,16.9,0001.2,0005.83,0018.05,0004.43
2021-10-06 17:01:00,,0826.7,5.00,0.00,29.8,28.2,00.0,38.9,31.5,16.9,0002.1,0005.87,0018.22,0004.47
2021-10-06 17:02:00,,0826.7,4.99,0.00,29.8,28.4,00.0,38.9,31.6,16.9,0002.2,0005.96,0017.33,0004.51
2021-10-06 17:03:00,,0826.7,5.00,0.00,29.8,28.6,00.0,38.9,31.7,16.9,0002.4,0006.01,0016.90,0004.55
2021-10-06 17:04:00,,0826.7,5.00,0.00,29.9,28.7,00.0,38.9,31.7,16.9,0000.7,0006.07,0017.18,0004.59
2021-10-06 17:05:00,,0826.7,4.99,0.00,29.9,28.9,00.0,38.9,31.8,16.7,0000.3,0006.09,0018.48,0004.62
2021-10-06 17:06:00,,0826.8,5.01,0.00,30.0,29.0,00.0,38.9,31.8,16.6,0000.0,0006.09,0018.72,0004.63
2021-10-06 17:07:00,,0826.7,5.01,0.00,30.0,29.1,00.0,38.9,31.9,16.5,0000.0,0006.11,0019.59,0004.66
2021-10-06 17:08:00,,0826.7,5.01,0.00,30.0,29.1,00.0,39.0,31.9,16.3,0002.0,0006.09,0019.35,0004.67
2021-10-06 17:09:00,,0826.7,5.00,0.00,30.1,29.2,00.0,39.0,31.9,16.2,0000.1,0006.04,0019.50,0004.66
2021-10-06 17:10:00,,0826.7,5.01,0.00,30.1,29.3,00.0,39.0,32.0,16.3,0001.7,0006.06,0020.02,0004.66
2021-10-06 17:11:00,,0826.7,4.99,0.00,30.1,28.6,00.0,39.0,31.8,16.6,0000.9,0006.06,0020.62,0004.65
2021-10-06 17:12:00,,0826.6,5.01,0.00,30.0,26.6,00.0,39.0,31.3,16.5,0002.6,0006.08,0021.56,0004.66
2021-10-06 17:13:00,,0826.7,5.00,0.00,29.8,26.1,00.0,39.0,31.1,16.5,0001.5,0006.10,0022.11,0004.66
2021-10-06 17:14:00,,0826.6,4.99,0.00,29.7,26.5,00.0,39.0,31.2,16.6,0001.9,0006.08,0021.88,0004.64
2021-10-06 17:15:00,,0826.5,5.00,0.00,29.7,26.9,00.0,38.9,31.2,16.6,0002.6,0006.12,0022.04,0004.62
2021-10-06 17:16:00,,0826.5,5.00,0.00,29.7,27.4,00.0,38.9,31.3,16.8,0003.4,0006.12,0021.57,0004.60
2021-10-06 17:17:00,,0826.5,5.01,0.00,29.7,27.7,00.0,38.8,31.4,16.6,0000.5,0006.11,0021.00,0004.59
2021-10-06 17:18:00,,0826.5,5.00,0.00,29.7,28.0,00.0,38.8,31.5,16.6,0000.6,0006.01,0021.38,0004.56
2021-10-06 17:19:00,,0826.5,4.99,0.00,29.7,28.3,00.0,38.8,31.5,16.4,0000.0,0005.94,0020.85,0004.54
2021-10-06 17:20:00,,0826.5,5.02,0.00,29.8,28.5,00.0,38.8,31.6,16.3,0000.0,0005.98,0020.37,0004.53
2021-10-06 17:21:00,,0826.5,4.99,0.00,29.8,28.6,00.0,38.8,31.7,16.4,0000.0,0006.00,0020.24,0004.53
2021-10-06 17:22:00,,0826.5,5.00,0.00,29.9,28.8,00.0,38.9,31.7,16.4,0000.0,0005.98,0020.15,0004.53
2021-10-06 17:23:00,,0826.5,4.99,0.00,29.9,28.9,00.0,38.9,31.8,16.5,0000.0,0006.00,0020.76,0004.50
2021-10-06 17:24:00,,0826.5,5.00,0.00,29.9,29.0,00.0,38.9,31.8,16.6,0000.0,0005.96,0020.42,0004.48
2021-10-06 17:25:00,,0826.5,5.00,0.00,30.0,29.1,00.0,38.9,31.8,16.6,0000.0,0005.94,0020.93,0004.47
2021-10-06 17:26:00,,0826.5,5.00,0.00,30.0,29.1,00.0,38.9,31.9,16.3,0000.0,0005.90,0020.86,0004.47
2021-10-06 17:27:00,,0826.5,4.99,0.00,30.1,29.2,00.0,39.0,31.9,16.4,0000.0,0005.90,0020.68,0004.46
2021-10-06 17:28:00,,0826.5,5.01,0.00,30.1,29.2,00.0,39.0,32.0,16.4,0000.0,0005.88,0021.19,0004.46
2021-10-06 17:29:00,,0826.6,5.00,0.00,30.1,27.8,00.0,39.0,31.7,16.4,0000.0,0005.91,0022.22,0004.46
2021-10-06 17:30:00,,0826.5,5.01,0.00,29.9,26.2,00.0,39.0,31.2,16.4,0002.0,0005.97,0021.83,0004.47
2021-10-06 17:31:00,,0826.4,4.99,0.00,29.8,26.2,00.0,39.0,31.1,16.6,0001.8,0005.97,0021.68,0004.46
2021-10-06 17:32:00,,0826.5,5.00,0.00,29.7,26.7,00.0,38.9,31.2,16.6,0002.0,0005.98,0021.70,0004.46
2021-10-06 17:33:00,,0826.5,4.99,0.00,29.7,27.1,00.0,38.9,31.3,16.6,0002.2,0005.97,0021.51,0004.44
2021-10-06 17:34:00,,0826.5,5.01,0.00,29.7,27.5,00.0,38.8,31.4,16.4,0002.5,0005.88,0021.25,0004.43
2021-10-06 17:35:00,,0826.5,4.99,0.00,29.7,27.9,00.0,38.8,31.4,16.4,0002.6,0005.88,0020.85,0004.43
2021-10-06 17:36:00,,0826.5,5.01,0.00,29.7,28.1,00.0,38.8,31.5,16.2,0001.7,0005.87,0020.69,0004.42
2021-10-06 17:37:00,,0826.5,5.01,0.00,29.8,28.4,00.0,38.8,31.6,15.9,0001.1,0005.81,0020.89,0004.40
2021-10-06 17:38:00,,0826.5,5.00,0.00,29.8,28.6,00.0,38.8,31.6,15.9,0001.0,0005.74,0020.44,0004.39
2021-10-06 17:39:00,,0826.4,4.99,0.00,29.8,28.7,00.0,38.8,31.7,15.9,0000.1,0005.68,0019.34,0004.38
2021-10-06 17:40:00,,0826.5,5.01,0.00,29.9,28.9,00.0,38.9,31.7,16.0,0000.0,0005.69,0017.93,0004.38
2021-10-06 17:41:00,,0826.5,5.00,0.00,29.9,29.0,00.0,38.9,31.7,16.0,0000.0,0005.67,0018.02,0004.38
2021-10-06 17:42:00,,0826.5,5.01,0.00,30.0,29.1,00.0,38.9,31.9,16.1,0000.0,0005.62,0018.82,0004.38
2021-10-06 17:43:00,,0826.5,5.00,0.00,30.0,29.2,00.0,38.9,31.9,16.3,0000.0,0005.54,0018.31,0004.36
2021-10-06 17:44:00,,0826.4,5.01,0.00,30.1,29.3,00.0,38.9,32.0,16.3,0000.0,0005.51,0017.94,0004.36
2021-10-06 17:45:00,,0826.4,5.01,0.00,30.1,28.8,00.0,39.0,31.9,16.1,0000.0,0005.48,0016.35,0004.36
2021-10-06 17:46:00,,0826.4,5.00,0.00,30.0,26.9,00.0,38.9,31.3,16.2,0000.0,0005.49,0015.79,0004.37
2021-10-06 17:47:00,,0826.4,5.01,0.00,29.8,26.1,00.0,38.9,31.0,16.3,0000.0,0005.48,0014.84,0004.37
2021-10-06 17:48:00,,0826.4,4.99,0.00,29.7,26.4,00.0,38.9,31.1,16.4,0000.0,0005.50,0014.27,0004.38
2021-10-06 17:49:00,,0826.5,5.00,0.00,29.7,26.9,00.0,38.8,31.2,16.4,0000.0,0005.51,0014.31,0004.38
2021-10-06 17:50:00,,0826.5,5.01,0.00,29.7,27.3,00.0,38.8,31.3,16.4,0001.4,0005.54,0014.74,0004.39
2021-10-06 17:51:00,,0826.4,5.00,0.00,29.7,27.7,00.0,38.8,31.4,16.4,0002.3,0005.48,0015.14,0004.39
2021-10-06 17:52:00,,0826.5,5.00,0.00,29.7,28.0,00.0,38.8,31.4,16.4,0002.1,0005.46,0015.86,0004.38
2021-10-06 17:53:00,,0826.4,5.01,0.00,29.7,28.3,00.0,38.8,31.5,16.5,0002.1,0005.47,0015.90,0004.39
2021-10-06 17:54:00,,0826.4,5.00,0.00,29.8,28.5,00.0,38.8,31.6,16.4,0002.6,0005.48,0015.67,0004.38
2021-10-06 17:55:00,,0826.4,5.00,0.00,29.8,28.7,00.0,38.8,31.7,16.4,0002.6,0005.53,0015.90,0004.38
2021-10-06 17:56:00,,0826.4,5.00,0.00,29.9,28.9,00.0,38.8,31.7,16.3,0002.2,0005.59,0017.42,0004.38
2021-10-06 17:57:00,,0826.3,5.01,0.00,29.9,29.0,00.0,38.8,31.8,16.3,0002.0,0005.53,0018.54,0004.37
2021-10-06 17:58:00,,0826.2,5.00,0.00,30.0,29.1,00.0,38.9,31.9,16.3,0001.7,0005.52,0018.68,0004.38
2021-10-06 17:59:00,,0826.2,5.01,0.00,30.0,29.2,00.0,38.9,31.9,16.2,0002.3,0005.58,0020.43,0004.39
